Location: *
(46.3500°N, 10.9000°E)
Time: 21:36:28
(UTC+00:00)

A-11 Canister half - Pass Details

Date: 21 April 2021
Orbit: 1526 x 1682 km, 47.3° (Epoch: 13 May)

Event Time Altitude Azimuth Distance (km) Brightness Sun altitude
Rises 17:03:40 0° 270° (W) 4,903 13.8 10.7°
Reaches altitude 10° 17:06:49 10° 271° (W) 3,928 14.2 10.1°
Maximum altitude 17:17:00 85° 2° (N) 1,693 9.5 8.4°
Drops below altitude 10° 17:27:12 10° 91° (E) 3,931 10.5 6.7°
Sets 17:30:20 0° 93° (E) 4,907 11.0 6.1°
